STARLINK-2706 (48481 NORAD) Tracking and Keplerian Element Data

This shows tracking and keplerian element data for the satellite.

Feedback or suggestion? Click here.




ElementValue
Catalog48481
NameSTARLINK-2706
Epoch Orbit1247
Epoch Day210.34816352
Epoch Year2021
RAAN202.9247
Inclination53.051
Eccentricity0.0001548
Argument of Perigee67.4177
Mean Anonmoly292.6976
Mean Motion15.06389727
Decay Rate-1.403E-05
L11 48481U 21040BF 21210.34816352 -.00001403 00000-0 -75296-4 0 9993
L22 48481 53.0510 202.9247 0001548 67.4177 292.6976 15.06389727 12470

Live tracking and technical data element details for STARLINK-2706 (NORAD 48481). STARLINK-2706 can be tracked NOW for your location showing map with azimuth and elevation plus other details from your city location.

Track the satellite on the map from your city or location and see movement details for azimuth, elevation, latitude, longitude, range, height, and movement on the map or in text.







IsCatalogInMostPopularTable: catalog: 48481, numindb: 24
Update: records affected: 1



GetName: 48481 STARLINK-2706

Hit Count: updated at: Sat, 31 Jul 2021 14:38:03 GMT